map of BGA home
BGA - Airport
Location
City:  Bucaramanga, Santander, Colombia
Name:Palonegro International Airport
ICAO:SKBG
IATA:BGA

Details
Type:Airport (Aerodrome, Airfield)
Use:International (customs port of entry)
Latitude:707'37"N (7.126944)
Longitude:7311'06"W (-73.184999)
Elevation:3902 ft (1189 m)
Variation:8.31W (WMM2015 magnetic declination)
-0.13 annual change
Runways:1
Longest:7381 × 131 ft (2250 × 40 m), paved

Time
Time Zone:UTC-5
Local Time:

Weather
METAR:SKBG 180200Z 00000KT 9999 FEW017 SCT240 21/18 A3006

Related Locations
Nearby:
Farthest:WICJ: 12446 mi / 20030 km
Bogor [Atang Sanjaya AB], JB, ID

Find:

   beyond  
but within

Other Information
Maps:
NOTAMs:
Links:
Sources:

  
  • flag of Colombia
  • flag of Santander
  • flag of Bucaramanga
  

Sectional Chart

Flight Planning
at skyvector.com

Satellite Image

Google Maps Satellite view

 

Copyright © 2004-2018 Karl L. Swartz. All rights reserved.
The Great Circle Mapper name and logo are trademarks of the Great Circle Mapper.
All other trademarks mentioned herein belong to their respective owners.
Please see credits for attibutions and further copyright information.

  Follow gcmap on Facebook Follow gcmap on Twitter Follow gcmap on Google+ GCmap on LinkedIn

hCard Microformat

Geo Microformat